This is the latest recevied weather packets stored in our database for station/object 5B4APJ-13. If no packets are shown the sender has not sent any weather packets the latest 10 day(s).
| Time | Temp. | Humidity | Pressure | Rain* | Wind** | Luminosity | Snow |
|---|---|---|---|---|---|---|---|
| 1777580829 | 13.89° C | 82% | 1013.6 hPa | 0 mm | 0 m/s | 0 W/m² | - |
| 1777580526 | 14.44° C | 81% | 1013.7 hPa | 0 mm | 0 m/s | 0 W/m² | - |
| 1777580227 | 14.44° C | 81% | 1013.8 hPa | 0 mm | 0 m/s | 0 W/m² | - |
| 1777579927 | 14.44° C | 81% | 1014 hPa | 0 mm | 0.45 m/s, 168° | 0 W/m² | - |
| 1777579627 | 14.44° C | 83% | 1013.9 hPa | 0 mm | 0.45 m/s, 168° | 0 W/m² | - |
| 1777579326 | 14.44° C | 81% | 1014 hPa | 0 mm | 0.45 m/s, 168° | 0 W/m² | - |
| 1777579026 | 14.44° C | 82% | 1013.9 hPa | 0 mm | 0 m/s | 0 W/m² | - |
| 1777578426 | 14.44° C | 80% | 1014 hPa | 0 mm | 0.45 m/s, 167° | 0 W/m² | - |
| 1777578126 | 15° C | 80% | 1013.7 hPa | 0 mm | 0 m/s | 0 W/m² | - |
| 1777577826 | 15° C | 80% | 1013.9 hPa | 0 mm | 0 m/s | 0 W/m² | - |
| 1777577526 | 15° C | 81% | 1013.8 hPa | 0 mm | 0 m/s | 0 W/m² | - |
| 1777577226 | 15° C | 82% | 1013.8 hPa | 0 mm | 0.89 m/s, 217° | 0 W/m² | - |
| 1777576926 | 14.44° C | 82% | 1014 hPa | 0 mm | 0 m/s | 0 W/m² | - |
| 1777576626 | 15° C | 80% | 1013.7 hPa | 0 mm | 0 m/s | 0 W/m² | - |
| 1777576326 | 15° C | 82% | 1013.7 hPa | 0 mm | 0.45 m/s, 336° | 0 W/m² | - |
| 1777576025 | 15° C | 81% | 1013.9 hPa | 0 mm | 0.45 m/s, 339° | 0 W/m² | - |
| 1777575726 | 15° C | 82% | 1013.8 hPa | 0 mm | 0 m/s | 0 W/m² | - |
| 1777575426 | 15° C | 82% | 1013.8 hPa | 0 mm | 0 m/s | 0 W/m² | - |
| 1777575126 | 15° C | 81% | 1013.7 hPa | 0 mm | 0 m/s | 0 W/m² | - |
| 1777574826 | 15° C | 81% | 1013.6 hPa | 0 mm | 0 m/s | 0 W/m² | - |
| 1777574526 | 15° C | 79% | 1013.9 hPa | 0 mm | 0 m/s | 0 W/m² | - |
| 1777574226 | 15.56° C | 78% | 1013.8 hPa | 0 mm | 0 m/s | 0 W/m² | - |
| 1777573926 | 15.56° C | 77% | 1013.6 hPa | 0 mm | 0 m/s | 0 W/m² | - |
| 1777573626 | 16.11° C | 74% | 1013.7 hPa | 0 mm | 0 m/s | 0 W/m² | - |
| 1777573326 | 16.11° C | 76% | 1013.8 hPa | 0 mm | 0 m/s | 0 W/m² | - |
* Rain latest hour (hover to see other rain measurements)
** Current wind speed in m/s (hover to see current wind gust speed)